Weather History for Mobile Downtown, AL

Change the Weather History Date:

Sunday, December 22, 2013

  Actual Average Record
Temperature  
Mean Temperature 62 °F -  
Max Temperature 68 °F 57 °F 75 °F (2002)
Min Temperature 54 °F 38 °F 27 °F (2000)
Degree Days  
Heating Degree Days 4    
Growing Degree Days 12 (Base 50)    
Moisture  
Dew Point 58 °F    
Average Humidity 94    
Maximum Humidity 97    
Minimum Humidity 88    
Precipitation  
Precipitation 3.09 in - - ()
Sea Level Pressure  
Sea Level Pressure 29.99 in    
Wind  
Wind Speed 10 mph (NNW)    
Max Wind Speed 17 mph    
Max Gust Speed 23 mph    
Visibility 4 miles    
Events Rain , Thunderstorm    
Averages and records for this station are not official NWS values.
T = Trace of Precipitation, MM = Missing Value Source: NWS Daily Summary

Daily Weather History Graph

Daily Weather History Graph

Search for Another Location

Airport:

Trip Planner

Search our weather history database for the weather conditions in past years. The results will help you decide how hot, cold, wet, or windy it might be!

Date:

Astronomy

Dec. 22, 2013 Rise Set
Actual Time 6:46 AM CST 4:56 PM CST
Civil Twilight 6:19 AM CST 5:22 PM CST
Nautical Twilight 5:49 AM CST 5:52 PM CST
Astronomical Twilight 5:19 AM CST 6:22 PM CST
Moon 9:49 PM CST (12/22) 9:59 AM CST (12/22)
Length of Visible Light 11h 03m
Length of Day
10h 10m
Waning Gibbous, 76% of the Moon is Illuminated
Dec 22
Waning Gibbous
Dec 25
Last Quarter
Jan 1
New
Jan 7
First Quarter
Jan 15
Full

Hourly Weather History & Observations

Time (CST) Temp. Dew Point Humidity Pressure Visibility Wind Dir Wind Speed Gust Speed Precip Events Conditions
12:22 AM 66.9 °F 66.0 °F 97% 29.89 in 3.0 mi SSE 11.5 mph - N/A   Overcast
12:53 AM 68.0 °F 66.9 °F 96% 29.89 in 5.0 mi South 9.2 mph - N/A   Overcast
1:53 AM 66.9 °F 66.0 °F 97% 29.90 in 2.5 mi South 6.9 mph - N/A   Overcast
2:07 AM 68.0 °F 66.9 °F 96% 29.89 in 3.0 mi South 9.2 mph - N/A   Overcast
2:53 AM 68.0 °F 66.9 °F 96% 29.88 in 4.0 mi South 10.4 mph 20.7 mph N/A   Overcast
3:53 AM 68.0 °F 66.9 °F 96% 29.88 in 5.0 mi South 9.2 mph 20.7 mph N/A   Overcast
4:53 AM 68.0 °F 66.9 °F 96% 29.87 in 4.0 mi South 11.5 mph 23.0 mph 0.00 in Rain Light Rain
5:53 AM 68.0 °F 66.9 °F 96% 29.88 in 4.0 mi SSE 12.7 mph 21.9 mph 0.05 in Rain Light Rain
6:36 AM 68.0 °F 66.9 °F 96% 29.92 in 5.0 mi SSW 8.1 mph 19.6 mph 0.00 in Rain , Thunderstorm Light Thunderstorms and Rain
6:53 AM 63.0 °F 61.0 °F 93% 29.94 in 10.0 mi NW 10.4 mph - 0.00 in Rain Light Rain
7:10 AM 61.0 °F 59.0 °F 93% 29.95 in 5.0 mi NNW 13.8 mph 23.0 mph 0.04 in Rain Rain
7:38 AM 60.1 °F 59.0 °F 96% 29.97 in 2.0 mi NNW 9.2 mph - 0.15 in Rain Heavy Rain
7:43 AM 60.1 °F 59.0 °F 96% 29.97 in 1.2 mi NNW 10.4 mph - 0.19 in Rain Heavy Rain
7:49 AM 60.8 °F 59.0 °F 94% 29.97 in 2.0 mi NNW 12.7 mph - 0.23 in Rain Heavy Rain
7:51 AM 60.8 °F 57.2 °F 88% 29.97 in 1.8 mi NNW 11.5 mph - 0.28 in Rain Heavy Rain
7:53 AM 60.1 °F 57.9 °F 93% 29.97 in 1.5 mi NNW 11.5 mph - 0.29 in Rain Heavy Rain
8:05 AM 60.1 °F 57.9 °F 93% 29.98 in 3.0 mi NNW 10.4 mph - 0.05 in Rain Rain
8:12 AM 59.0 °F 57.9 °F 96% 29.98 in 1.8 mi NNW 15.0 mph - 0.15 in Rain Heavy Rain
8:29 AM 57.9 °F 55.9 °F 93% 30.00 in 2.0 mi NW 12.7 mph - 0.28 in Rain Heavy Rain
8:36 AM 57.9 °F 55.9 °F 93% 29.99 in 3.0 mi NNW 9.2 mph - 0.29 in Rain Light Rain
8:51 AM 57.2 °F 55.4 °F 94% 30.00 in 3.0 mi NNW 10.4 mph - 0.35 in Rain , Thunderstorm Thunderstorms and Rain
8:53 AM 57.9 °F 55.9 °F 93% 30.00 in 6.0 mi NNW 12.7 mph - 0.35 in Rain , Thunderstorm Light Thunderstorms and Rain
8:58 AM 57.0 °F 55.9 °F 96% 29.99 in 1.8 mi NNW 9.2 mph - 0.12 in Rain , Thunderstorm Heavy Thunderstorms and Rain
9:16 AM 57.0 °F 55.9 °F 96% 30.00 in 3.0 mi North 4.6 mph - 0.22 in Rain Light Rain
9:53 AM 57.9 °F 57.0 °F 97% 29.99 in 10.0 mi North 8.1 mph - 0.23 in Rain Light Rain
10:53 AM 59.0 °F 57.0 °F 93% 30.00 in 10.0 mi North 6.9 mph - 0.05 in   Overcast
11:53 AM 57.9 °F 55.9 °F 93% 29.99 in 9.0 mi North 9.2 mph - 0.02 in Rain Light Rain
12:09 PM 57.9 °F 55.9 °F 93% 29.98 in 2.0 mi NNW 12.7 mph - 0.08 in Rain , Thunderstorm Heavy Rain
12:48 PM 57.2 °F 55.4 °F 94% 29.97 in 2.0 mi North 9.2 mph - 0.32 in Rain Light Rain
12:53 PM 57.0 °F 55.0 °F 93% 29.97 in 2.0 mi North 10.4 mph - 0.32 in Rain Light Rain
1:19 PM 57.0 °F 55.0 °F 93% 29.97 in 2.0 mi North 8.1 mph - 0.18 in Rain , Thunderstorm Heavy Rain
1:34 PM 57.0 °F 55.9 °F 96% 29.96 in 2.0 mi North 6.9 mph - 0.39 in Rain Heavy Rain
1:53 PM 57.9 °F 55.9 °F 93% 29.96 in 2.0 mi North 5.8 mph - 0.48 in Rain Rain
2:00 PM 57.9 °F 55.9 °F 93% 29.96 in 4.0 mi North 5.8 mph - 0.00 in Rain Light Rain
2:53 PM 57.9 °F 57.0 °F 97% 29.98 in 4.0 mi North 12.7 mph - 0.18 in Rain Light Rain
3:06 PM 59.0 °F 57.0 °F 93% 29.98 in 4.0 mi North 9.2 mph - 0.01 in Rain , Thunderstorm Light Rain
3:38 PM 57.9 °F 55.9 °F 93% 29.97 in 4.0 mi North 8.1 mph - 0.07 in Rain Heavy Rain
3:53 PM 57.9 °F 55.9 °F 93% 29.98 in 4.0 mi North 6.9 mph - 0.09 in Rain Rain
4:04 PM 57.9 °F 55.9 °F 93% 29.99 in 7.0 mi North 6.9 mph - 0.01 in Rain , Thunderstorm Light Thunderstorms and Rain
4:11 PM 57.9 °F 55.9 °F 93% 30.00 in 1.8 mi North 10.4 mph - 0.11 in Rain , Thunderstorm Heavy Thunderstorms and Rain
4:27 PM 57.0 °F 55.9 °F 96% 30.01 in 2.0 mi NNW 12.7 mph - 0.21 in Rain Heavy Rain
4:31 PM 57.0 °F 55.9 °F 96% 30.00 in 3.0 mi North 11.5 mph - 0.21 in Rain Light Rain
4:51 PM 57.2 °F 55.4 °F 94% 30.03 in 3.0 mi NNW 11.5 mph - 0.27 in Rain , Thunderstorm Light Thunderstorms and Rain
4:53 PM 57.0 °F 55.9 °F 96% 30.04 in 3.0 mi NNW 11.5 mph - 0.32 in Rain , Thunderstorm Thunderstorms and Rain
5:03 PM 57.0 °F 55.9 °F 96% 30.02 in 3.0 mi NW 17.3 mph - 0.24 in Rain , Thunderstorm Heavy Rain
5:10 PM 57.0 °F 55.9 °F 96% 30.04 in 3.0 mi NW 10.4 mph - 0.32 in Rain , Thunderstorm Heavy Rain
5:27 PM 57.0 °F 55.9 °F 96% 30.04 in 3.0 mi NNW 9.2 mph - 0.36 in Rain Rain
5:53 PM 57.0 °F 55.0 °F 93% 30.07 in 6.0 mi NNW 12.7 mph - 0.44 in Rain Light Rain
6:12 PM 55.9 °F 54.0 °F 93% 30.06 in 4.0 mi North 11.5 mph - N/A Rain , Thunderstorm Light Rain
6:27 PM 55.9 °F 53.1 °F 90% 30.08 in 10.0 mi North 11.5 mph - N/A Rain Light Rain
6:53 PM 55.9 °F 54.0 °F 93% 30.07 in 10.0 mi NNE 9.2 mph - N/A Rain Light Rain
7:10 PM 55.9 °F 53.1 °F 90% 30.06 in 10.0 mi NNE 11.5 mph - 0.00 in Rain Light Rain
7:53 PM 55.0 °F 53.1 °F 93% 30.09 in 3.0 mi North 9.2 mph - 0.20 in Rain Heavy Rain
8:53 PM 55.0 °F 54.0 °F 96% 30.09 in 5.0 mi North 10.4 mph - 0.04 in Rain Heavy Rain
9:53 PM 55.0 °F 53.1 °F 93% 30.13 in 10.0 mi NNW 5.8 mph - 0.02 in   Overcast
10:53 PM 55.0 °F 53.1 °F 93% 30.12 in 10.0 mi North 6.9 mph - 0.01 in   Overcast
11:53 PM 54.0 °F 52.0 °F 93% 30.09 in 10.0 mi North 6.9 mph - N/A   Overcast